www.pogodaiklimat.ru

ПОГОДА в Satun

  • Прогноз погоды в Satun
  • Монитор погоды в Satun
  • Климат города

АРХИВ ПОГОДЫ в Satun

Время (UTC), дата Ветер
(напр.,м/с)
 
Видим.   Явления Облачность Т
(С)
Тd
(С)
f
(%)
Тe
(С)
Тes
(С)
Комфортность P
(гПа)
Po
(гПа)
Тmin
(С)
Tmax
(С)
R
(мм)
S
(см)
03 15.01 штиль 0 10 км 4/1 600 м
[Cu hum Cs]
+30.0 +23.5 68 +41 +54 опасность
перегрева
1012.1 1011.5
06 15.01 З 5 10 км 5/3 600 м
[Cu med, cong Cs]
+32.7 +23.8 60 +44 +50 опасность
перегрева
1009.8 1009.1
09 15.01 штиль 0 10 км в посл. час дождь 8/4 600 м
[Cu Sc Ac lent Cs]
+26.6 +24.4 88 +37 +40 очень
душно
1008.6 1007.9 28
12 15.01 штиль 0 10 км {дождь} 9/4 600 м
[Cu Sc Ac lent Cs]
+26.8 +23.9 84 +37 +37 очень
душно
1009.7 1009.0 +33.1 28
15 15.01 штиль 0 10 км 6/3 600 м
[Cu med, cong Cs]
+25.5 +24.0 91 +35 +35 очень
душно
1011.4 1010.7
18 15.01 штиль 0 10 км 5/1 600 м
[Cu med, cong Cs]
+24.6 +23.7 95 +33 +33 очень
душно
1010.7 1010.0
21 15.01 штиль 0 10 км 5/1 600 м
[Cu hum Cs]
+24.0 +23.1 95 +32 +32 очень
душно
1009.4 1008.7
00 16.01 штиль 0 10 км 6/1 600 м
[Cu med, cong Cs]
+23.6 +22.7 95 +31 +31 очень
душно
1010.9 1010.2 +23.2 28
03 16.01 штиль 0 10 км 6/3 600 м
[Cu med, cong Cs]
+29.6 +23.7 71 +41 +51 опасность
перегрева
1011.4 1010.7
06 16.01 штиль 0 10 км 6/3 600 м
[Cu med, cong Cs]
+31.7 +23.5 62 +43 +57 опасность
перегрева
1009.0 1008.4
09 16.01 штиль 0 10 км гроза без осадков 9/4 600 м
[Cb cap Ac lent Cs]
+27.5 +23.3 78 +37 +40 очень
душно
1008.0 1007.3
21 16.01 штиль 0 10 км 8/3 600 м
[Cu med, cong Ac lent Cs]
+24.3 +23.1 93 +32 +32 очень
душно
1008.4 1007.7
00 17.01 штиль 0 10 км 8/3 600 м
[Cu med, cong Ac lent Cs]
+24.0 +23.0 94 +32 +32 очень
душно
1009.7 1009.0 +23.3
03 17.01 штиль 0 10 км 8/3 600 м
[Cu med, cong Ac lent Cs]
+29.6 +24.3 73 +41 +48 опасность
перегрева
1010.7 1010.0
06 17.01 штиль 0 6000 м слабый дождь 10/6 600 м
[Sc Ac As Cs]
+27.3 +24.7 86 +39 +43 очень
душно
1009.0 1008.3 4
09 17.01 штиль 0 10 км {дождь} 10/5 600 м
[Cu Sc Ac lent Cs]
+28.0 +25.1 84 +40 +42 очень
душно
1007.0 1006.3 14
12 17.01 штиль 0 10 км {дождь} 10/4 600 м
[Cu Sc Ac lent Cs]
+27.0 +23.5 81 +37 +37 очень
душно
1009.4 1008.7 +31.5 19
15 17.01 штиль 0 10 км 9/4 600 м
[Cu Sc Ac lent Cs]
+27.0 +22.6 77 +36 +36 очень
душно
1011.5 1010.8
18 17.01 СВ 2 10 км 10/4 600 м
[Cu Sc Ac lent Cs]
+26.4 +22.1 77 +34 +34 очень
душно
1011.9 1011.2
21 17.01 штиль 0 10 км 8/3 600 м
[Cu med, cong Ac lent Cs]
+25.5 +22.5 83 +33 +33 очень
душно
1009.5 1008.8
00 18.01 штиль 0 10 км 8/3 600 м
[Cu med, cong Ac lent Cs]
+25.1 +23.0 88 +33 +34 очень
душно
1011.6 1010.9 +24.6
03 18.01 В 9 10 км 8/3 600 м
[Cu med, cong Cs]
+30.1 +23.4 67 +41 +41 опасность
перегрева
1012.5 1011.8
06 18.01 СВ 9 10 км 8/3 600 м
[Cu med, cong Cs]
+32.0 +24.1 63 +44 +45 опасность
перегрева
1010.7 1010.1
09 18.01 СВ 7 10 км 8/3 600 м
[Cu med, cong Cs]
+31.5 +23.6 63 +43 +43 опасность
перегрева
1008.0 1007.4
12 18.01 С 4 10 км 8/3 600 м
[Cu med, cong Cs]
+27.5 +23.6 79 +37 +37 очень
душно
1010.5 1009.8 +32.5
15 18.01 В 6 10 км 8/3 600 м
[Cu med, cong Cs]
+27.4 +23.9 81 +38 +38 очень
душно
1012.2 1011.5
18 18.01 штиль 0 10 км 8/3 600 м
[Cu med, cong Cs]
+27.2 +23.9 82 +37 +37 очень
душно
1012.2 1011.5
21 18.01 штиль 0 6000 м слабый дождь 9/4 600 м
[Sc Ac As Cs]
+24.7 +23.7 94 +34 +34 очень
душно
1010.3 1009.6 15
00 19.01 штиль 0 6000 м слабый дождь 10/4 600 м
[Sc Ac As Cs]
+25.3 +24.1 93 +35 +35 очень
душно
1011.5 1010.8 +24.5 3
03 19.01 штиль 0 10 км {дождь} 8/3 600 м
[Cu med, cong Ac lent Cs]
+28.2 +24.3 79 +39 +47 очень
душно
1013.3 1012.7 4
06 19.01 СВ 6 10 км {дождь} 9/4 600 м
[Sc Ac lent Cs]
+29.7 +23.9 71 +41 +43 опасность
перегрева
1011.1 1010.4 4
09 19.01 штиль 0 10 км в посл. час дождь 9/4 600 м
[Sc Ac lent Cs]
+28.0 +25.4 86 +41 +44 опасность
перегрева
1008.6 1007.9 0.8
12 19.01 С 5 10 км 9/3 600 м
[Sc Ac lent Cs]
+27.4 +22.7 76 +36 +36 очень
душно
1010.2 1009.5 +31.5 5
15 19.01 штиль 0 10 км 9/3 600 м
[Sc Ac lent Cs]
+26.7 +24.2 86 +37 +37 очень
душно
1012.4 1011.7
18 19.01 штиль 0 10 км 8/3 600 м
[Cu med, cong Cs]
+25.1 +23.5 91 +34 +34 очень
душно
1011.5 1010.8
21 19.01 штиль 0 10 км в посл. час дождь 9/4 600 м
[Sc Ac lent Cs]
+24.5 +23.8 96 +33 +33 очень
душно
1008.2 1007.5 10
00 20.01 штиль 0 10 км {дождь} 10/4 600 м
[Sc Ac lent Cs]
+25.0 +24.3 96 +35 +35 очень
душно
1010.7 1010.0 +23.7 1
03 20.01 штиль 0 6000 м слабый дождь 10/5 600 м
[Sc Ac As Cs]
+26.0 +24.6 92 +37 +41 очень
душно
1011.8 1011.1 0.5
06 20.01 штиль 0 6000 м слабый дождь 10/5 600 м
[Sc Ac As Cs]
+26.6 +24.3 87 +37 +43 очень
душно
1011.1 1010.4 0.4
09 20.01 штиль 0 10 км {дождь} 9/4 600 м
[Sc Ac lent Cs]
+27.0 +23.6 82 +37 +40 очень
душно
1009.2 1008.6 0.1
12 20.01 В 4 10 км {дождь} 9/4 600 м
[Sc Ac lent Cs]
+25.8 +23.2 86 +35 +35 очень
душно
1009.8 1009.1 +28.4 1
15 20.01 штиль 0 5000 м слабый дождь 9/5 600 м
[Sc Ac As Cs]
+25.3 +23.1 88 +34 +34 очень
душно
1012.4 1011.7 2
18 20.01 штиль 0 10 км {дождь} 9/4 600 м
[Sc Ac lent Cs]
+24.0 +21.7 87 +31 +31 очень
душно
1011.1 1010.4 3
21 20.01 штиль 0 10 км {дождь} 9/4 600 м
[Sc Ac lent Cs]
+24.5 +22.4 88 +32 +32 очень
душно
1010.0 1009.3 0.9
00 21.01 штиль 0 10 км {дождь} 9/3 600 м
[Sc Ac lent Cs]
+25.8 +22.7 83 +34 +34 очень
душно
1011.8 1011.1 +23.3 0.2
03 21.01 В 2 10 км 8/3 600 м
[Sc Ac lent Cs]
+29.2 +23.1 70 +39 +45 очень
душно
1012.9 1012.3
06 21.01 В 5 10 км 8/3 600 м
[Cu med, cong Ac lent Cs]
+30.3 +24.7 72 +43 +47 опасность
перегрева
1010.4 1009.7
09 21.01 В 4 10 км 8/3 600 м
[Cu med, cong Ac lent Cs]
+30.4 +23.0 65 +41 +42 опасность
перегрева
1008.9 1008.2
12 21.01 В 7 10 км 8/3 600 м
[Cu med, cong Ac lent Cs]
+28.4 +22.7 71 +38 +38 очень
душно
1011.2 1010.5 +31.5
15 21.01 В 5 10 км 8/3 600 м
[Cu med, cong Ac lent Cs]
+27.0 +22.6 77 +36 +36 очень
душно
1013.9 1013.2
18 21.01 СВ 4 10 км 8/3 600 м
[Cu med, cong Cs]
+26.7 +22.7 79 +35 +35 очень
душно
1013.5 1012.8
21 21.01 штиль 0 10 км 8/3 600 м
[Cu med, cong Cs]
+25.6 +22.5 83 +34 +34 очень
душно
1010.2 1009.5
00 22.01 В 3 10 км 9/3 600 м
[Cu med, cong Ac lent Cs]
+26.6 +22.1 76 +34 +35 очень
душно
1012.3 1011.6 +25.2
03 22.01 СВ 8 10 км 8/3 600 м
[Cu med, cong Ac lent Cs]
+30.3 +23.3 66 +41 +42 опасность
перегрева
1013.7 1013.1
06 22.01 СВ 10 10 км 8/3 600 м
[Cu med, cong Ac lent Cs]
+30.5 +22.4 62 +40 +40 очень
душно
1011.9 1011.2
09 22.01 СВ 5 10 км 8/3 600 м
[Cu med, cong Ac lent Cs]
+31.0 +23.0 62 +41 +42 опасность
перегрева
1009.4 1008.7

 

Местоположение метеостанции Satun (Таиланд): широта 6.65 долгота 100.08 высота над уровнем моря 6 м.

В архиве по умолчанию представлена погода в Satun за последнюю неделю. Архивные данные за месяц целиком и за предыдущие месяцы, начиная с января 2011 года, Вы можете получить, выбрав интересующий диапазон дат из раскрывающегося списка и нажав кнопку "Ввод!".

Внимание! Время в таблицах - всемирное. Для получения местного времени необходимо прибавить поправку, которая в Satun равна 7 ч.

Ветер - указаны скорость ветра в м/с - средняя за 10 мин, порывы в срок и между сроками (в фигурных скобках) и направление, откуда дует ветер: С - северный, СВ - северо-восточный, В - восточный, ЮВ - юго-восточный, Ю - южный, ЮЗ - юго-западный, З - западный, СЗ - северо-западный.
Видимость - горизонтальная дальность видимости в метрах или километрах. При видимости от 1 до 10 км при отсутствии осадков обычно наблюдается дымка, при ухудшении видимости до 1 км и менее - туман. В сухую погоду видимость может ухудшаться дымом, пылью или мглою.
Явления - указаны атмосферные явления, наблюдавшиеся в срок или в последний час перед сроком; фигурными скобками обозначены явления, наблюдавшиеся между сроками (за 1-3 часа до срока); квадратными скобками обозначены град или гололедные отложения с указанием их диаметра в мм.
Облачность - указаны через наклонную черту общая и нижняя облачность в баллах и высота нижней границы облаков в метрах; квадратными скобками обозначены формы облаков: Ci - перистые, Cs - перисто-слоистые, Cc - перисто-кучевые, Ac - высококучевые, As - высокослоистые, Sc - слоисто-кучевые, Ns - слоисто-дождевые, Cu - кучевые, Cb - кучево-дождевые. Подробнее классификацию облаков см. в Атласе облаков (PDF).
T - Температура воздуха - температура, измеренная на высоте 2 м над землей.
Td - Температура точки росы - температура, при понижении до которой содержащийся в воздухе водяной пар достигнет насыщения.
f - Относительная влажность воздуха - влажноcть воздуха, измеренная на высоте 2 м над землей.
Te - Эффективная температура - температура, которую ощущает одетый по сезону человек в тени. Характеристика душности погоды. При расчете учитывается влияние влажности воздуха и скорости ветра на теплоощущения человека.
Tes - Эффективная температура на солнце - температура, которую ощущает человек, с поправкой на солнечный нагрев. Характеристика знойности погоды. Зависит от высоты солнца над горизонтом, облачности и скорости ветра. Ночью, в пасмурную погоду, а также при ветре 12 м/с и более поправка равна нулю.
P - Атмосферное давление - приведенное к уровню моря атмосферное давление.
Po - Атмосферное давление - измеренное на уровне метеостанции атмосферное давление.
Tmin - Минимальная температура - минимум температуры воздуха на высоте 2 м над землей.
Tmax - Максимальная температура - максимум температуры воздуха на высоте 2 м над землей.
R - Количество осадков - Количество выпавших осадков, мм. При наведении курсора мыши на число - период времени, за который выпало указанное количество осадков.
S - Снежный покров - Высота снежного покрова, см. При наведении курсора мыши на число - состояние снежного покрова и степень покрытия местности в баллах.